Lapse_Rate
7.8 8.5 4.6 4.3 6.4 6.5 6.5 6.5 6.5 6.5 6.5 5.7 6.1 5.8 6.3 6.0 6.5 6.5 2.8 3.8 2.5 2.2 2.7 2.7 2.8 3.8 4.3 5.0 5.5 5.5 5.6 5.8 5.8 5.9 6.3 6.2 6.4 6.4 6.4 6.3 6.7 7.3 6.9 7.0 7.2 6.1 6.0 6.2 5.9
7.9 8.3 4.6 5.1 6.5 6.5 6.5 6.5 6.5 6.5 5.8 5.5 5.0 6.1 6.3 6.5 4.2 5.0 6.0 3.3 3.5 3.1 3.2 2.8 2.8 3.6 4.2 4.9 5.4 5.5 5.6 5.9 5.8 6.0 6.2 6.2 6.5 6.5 6.4 6.1 7.0 6.9 6.9 6.7 6.1 5.4 5.3 5.5 5.8
8.1 8.1 5.0 6.5 6.5 6.5 6.5 6.5 6.5 6.3 5.8 6.3 5.9 5.4 5.7 5.6 4.1 3.6 5.0 3.7 3.5 3.8 3.9 3.3 3.1 3.3 4.1 4.6 5.1 5.4 5.6 5.9 5.9 6.2 6.1 6.2 6.2 6.7 6.5 6.4 7.0 5.8 5.9 5.6 5.3 4.9 4.8 5.0 5.4
7.0 6.0 5.2 6.5 6.5 6.5 6.5 6.5 6.5 6.5 6.6 6.1 6.3 6.5 5.9 4.6 3.4 5.2 4.7 3.1 3.1 3.5 4.1 4.1 3.9 3.4 4.1 4.4 4.6 5.0 5.6 5.9 6.1 5.9 6.1 6.2 6.3 6.7 6.2 5.6 5.9 4.8 5.0 5.2 4.8 4.5 4.5 4.7 4.9
6.7 5.7 6.5 6.5 6.5 6.5 6.5 6.2 5.9 6.5 6.4 6.2 6.6 6.4 6.4 6.1 4.9 5.0 4.7 4.3 3.9 4.0 3.6 4.1 4.4 3.9 3.9 4.5 4.7 4.8 5.3 5.7 5.8 5.7 6.1 6.1 6.1 6.5 5.3 5.3 5.3 4.7 4.8 5.3 4.7 4.3 4.3 4.6 5.0
5.5 5.3 6.5 6.5 6.5 6.5 6.5 5.8 6.1 6.4 6.5 5.9 6.3 6.4 5.5 3.3 5.0 4.5 4.9 4.2 5.1 3.7 4.2 4.6 4.7 4.5 4.2 4.6 4.7 5.0 5.2 5.5 5.7 5.8 6.2 5.9 6.1 5.9 5.5 5.3 5.4 4.8 4.8 4.9 4.6 4.4 4.5 4.8 4.9
6.5 6.5 6.5 6.5 6.5 6.5 6.5 5.7 6.2 6.4 6.3 6.3 6.7 6.5 6.1 5.2 4.6 4.3 4.8 4.1 4.4 4.3 4.2 4.6 4.8 4.5 4.5 4.5 4.5 4.9 5.4 5.2 5.8 5.9 6.3 5.9 5.7 5.8 5.6 5.5 5.5 5.0 4.6 4.5 4.5 4.6 4.5 4.6 4.7
7.0 6.5 6.5 6.5 6.5 6.5 6.5 6.1 6.2 6.2 6.4 5.6 7.0 6.5 6.0 5.6 4.4 3.2 4.1 3.2 3.7 4.7 4.5 4.3 4.1 4.6 4.5 4.6 4.6 5.0 5.3 5.0 5.6 5.9 5.6 6.1 5.7 5.7 5.9 5.5 5.4 5.4 4.4 4.2 4.3 4.7 4.8 4.5 4.6
7.1 6.5 6.5 6.5 6.5 6.5 6.4 6.5 6.3 5.7 6.0 5.9 6.8 6.3 6.7 5.7 6.2 5.0 3.7 3.9 3.6 5.1 4.4 4.4 4.2 4.2 4.8 4.8 5.2 5.2 5.0 5.1 5.5 5.6 5.5 5.6 6.0 7.1 7.0 6.2 6.0 5.8 4.4 4.2 4.2 4.4 4.3 4.4 4.8
6.5 6.5 6.5 6.5 6.5 6.5 6.4 6.2 6.2 6.3 6.3 6.4 7.2 7.2 6.7 6.0 5.9 4.8 3.1 5.4 4.0 4.7 4.7 4.8 4.4 4.3 5.4 5.5 5.2 5.2 5.1 5.3 5.9 6.3 6.1 4.3 6.5 7.5 7.7 7.3 6.5 5.0 4.1 4.3 4.3 4.1 4.1 4.3 4.5
6.2 6.5 6.5 6.5 6.3 6.3 6.4 6.2 6.6 6.5 6.5 6.2 6.7 7.2 6.8 5.2 5.6 6.0 4.9 6.9 3.4 4.1 5.0 5.4 4.6 5.3 5.8 5.4 5.4 5.2 5.0 5.2 5.9 6.1 5.0 3.7 5.0 5.8 5.9 6.4 4.6 3.4 3.9 3.8 3.9 3.8 3.7 3.8 4.4
6.5 6.5 6.6 6.5 6.8 6.7 6.5 6.9 6.4 6.4 6.6 6.7 6.7 6.6 6.5 4.8 5.3 6.2 5.5 5.7 5.2 5.6 4.7 5.9 5.4 5.1 6.2 6.0 5.9 5.6 5.4 5.3 5.8 5.8 4.9 4.0 3.9 6.3 5.6 5.8 3.5 2.9 3.1 2.9 3.1 3.1 3.5 3.6 4.3
6.5 6.5 6.7 6.7 6.5 6.6 6.4 6.5 6.5 6.5 6.3 6.2 5.9 7.1 6.0 5.3 4.8 7.0 5.5 5.0 4.9 3.8 3.9 3.9 4.1 4.8 5.7 5.6 5.5 5.8 5.3 5.5 6.0 5.7 4.7 4.4 3.9 3.1 4.5 7.4 4.9 2.6 3.1 3.0 2.5 3.0 3.5 3.9 5.1
6.5 6.4 6.5 6.7 6.5 6.2 6.5 6.5 6.4 6.8 6.4 6.9 7.1 6.2 6.3 5.9 6.8 5.3 4.7 4.7 4.8 4.2 4.3 3.8 3.9 3.8 4.5 4.9 5.4 6.0 5.6 6.4 5.8 6.1 4.6 5.1 4.2 3.5 3.5 3.9 2.2 2.8 3.1 3.7 3.7 3.4 3.7 4.1 5.6
6.5 6.5 6.5 6.5 6.5 6.5 6.6 6.5 6.5 7.1 7.3 6.7 6.8 6.9 6.8 6.9 6.1 3.9 4.5 4.2 5.0 3.7 4.0 3.8 3.4 3.9 4.3 4.8 5.0 5.1 5.5 6.4 6.3 5.6 4.8 6.5 4.8 4.6 4.2 4.2 3.3 3.7 3.7 4.3 4.9 5.2 5.3 4.6 5.4
6.5 6.5 6.5 6.5 6.5 6.4 6.1 6.5 6.5 6.0 5.3 6.0 6.8 7.1 7.0 6.0 4.1 3.8 5.5 4.4 5.2 4.0 3.3 2.9 3.2 2.6 3.3 4.4 4.9 4.7 5.5 6.9 6.0 5.8 6.3 6.8 5.6 5.1 4.6 4.0 3.1 4.2 4.8 5.0 4.2 4.3 4.6 4.7 5.1
6.5 6.5 6.5 6.5 6.5 6.5 6.5 6.5 6.5 5.8 6.0 6.0 6.4 6.1 6.2 6.3 5.5 4.4 4.2 3.4 5.1 4.6 4.4 3.1 3.4 3.5 1.8 5.3 5.1 5.6 5.9 6.6 5.6 5.7 6.4 6.3 6.0 5.7 5.1 4.4 3.9 4.9 4.2 3.5 4.2 4.3 5.1 5.0 5.0
6.5 6.5 6.5 6.5 6.5 6.5 6.5 6.5 6.5 6.5 6.4 5.7 4.9 5.0 5.5 5.7 5.6 5.3 3.5 4.3 5.4 5.1 4.4 3.4 3.0 3.0 3.9 5.1 4.3 5.5 5.9 5.6 5.6 5.5 6.0 6.1 6.0 6.0 5.2 4.6 4.1 4.3 3.4 3.4 3.9 4.7 4.6 4.9 5.2
6.5 6.5 6.5 6.5 6.5 6.5 6.5 6.5 6.5 6.5 6.1 6.4 5.6 5.2 4.7 5.6 5.8 4.4 5.7 4.9 5.0 4.5 3.8 3.5 2.8 2.2 4.5 5.6 5.3 5.1 6.5 5.5 5.6 5.5 5.9 5.9 5.9 5.5 4.8 4.4 4.2 4.4 4.2 4.0 4.4 4.9 5.4 5.1 4.8
6.5 6.5 6.5 6.5 6.5 6.5 6.5 6.5 6.5 6.5 6.5 6.0 5.8 5.4 5.4 5.4 4.8 4.7 5.4 5.4 5.8 5.3 5.1 4.6 3.9 4.3 4.4 6.0 6.1 6.2 5.6 5.6 6.0 6.0 6.0 6.3 5.7 5.6 5.2 5.0 5.0 5.2 4.9 4.7 5.1 5.6 4.9 4.9 4.3
6.5 6.5 6.5 6.5 6.5 6.5 6.5 6.5 6.5 6.5 6.5 6.5 6.1 5.2 4.9 5.5 4.3 5.3 4.8 4.9 5.4 5.0 4.8 4.7 4.8 5.4 4.8 4.9 4.7 4.3 5.4 5.2 5.6 5.8 5.9 5.5 5.8 5.4 5.5 5.6 5.0 4.7 4.5 4.5 5.3 4.9 5.0 4.4 4.0
6.5 6.5 6.5 6.5 6.5 6.5 6.5 6.5 6.5 6.5 6.5 6.5 6.1 4.0 4.8 4.7 5.0 4.4 5.0 4.8 5.1 5.1 5.1 4.6 4.6 5.0 4.8 5.1 5.4 5.6 6.0 6.2 6.2 6.0 5.5 5.5 5.8 5.3 5.7 5.5 5.0 4.4 4.0 3.7 3.6 3.3 3.1 3.3 3.7
6.5 6.5 6.5 6.5 6.5 6.5 6.5 6.5 6.5 6.5 6.5 6.5 6.5 5.4 4.8 4.6 4.8 5.2 4.8 4.9 4.5 4.0 4.2 4.1 4.4 5.7 4.9 4.3 5.5 5.2 5.2 4.3 5.1 5.2 5.1 5.1 4.7 5.0 4.8 4.4 3.9 3.7 3.4 3.2 3.2 3.1 3.4 3.5 4.2
6.5 6.5 6.5 6.5 6.5 6.5 6.5 6.5 6.5 6.5 6.5 6.5 6.5 6.3 5.0 3.8 5.2 4.7 5.0 4.7 4.6 5.1 4.1 4.8 4.4 4.8 5.2 5.0 4.9 7.2 6.7 4.6 4.4 4.3 4.0 3.7 3.6 3.8 3.9 3.6 3.3 3.2 3.2 3.1 2.9 2.8 2.8 2.6 3.9
6.5 6.5 6.5 6.5 6.5 6.5 6.5 6.5 6.5 6.5 6.5 6.5 6.5 6.5 5.5 5.7 6.1 5.3 5.5 5.3 4.1 3.8 4.1 5.0 4.7 4.3 4.9 4.9 5.3 4.5 3.1 3.5 3.6 3.7 4.0 3.7 3.1 2.8 3.1 3.3 3.1 3.1 3.1 2.6 2.6 2.6 2.5 2.8 3.6
6.5 6.5 6.5 6.5 6.5 6.5 6.5 6.5 6.5 6.5 6.4 6.5 6.2 6.5 6.4 5.6 5.1 5.7 5.2 4.6 4.4 3.7 4.3 4.8 4.9 4.9 5.1 4.8 5.0 4.6 4.0 3.2 3.0 2.6 2.3 2.1 2.2 2.0 2.2 2.6 2.7 2.7 2.9 2.3 1.9 2.0 1.6 2.2 3.0
6.5 6.5 6.5 6.5 6.5 6.5 6.5 6.5 6.5 6.5 6.5 6.4 6.7 6.4 6.6 6.3 5.0 5.3 4.6 3.8 4.6 4.3 4.9 5.0 4.7 4.8 4.8 4.1 5.2 4.6 4.3 4.2 3.7 3.7 3.3 3.3 3.0 2.9 2.8 2.6 2.7 2.4 2.7 2.7 3.2 3.5 2.1 2.1 3.8
6.5 6.5 6.5 6.5 6.5 6.5 6.5 6.5 6.5 6.5 6.5 6.5 6.5 6.5 6.0 5.7 5.1 5.0 4.8 4.8 4.5 4.1 4.0 4.9 4.7 5.1 5.4 5.4 4.9 4.3 4.2 3.7 4.2 4.2 3.5 3.5 3.1 3.2 3.4 3.1 3.0 3.2 3.0 3.9 3.9 2.9 1.9 2.6 2.7
6.5 6.5 6.5 6.5 6.5 6.5 6.5 6.5 6.5 6.5 6.5 6.5 6.5 5.6 5.3 5.4 5.3 4.6 3.8 4.3 4.3 4.0 3.6 4.0 4.3 4.2 4.9 6.0 5.2 5.2 5.1 4.9 4.2 4.3 3.9 3.6 3.2 3.0 2.7 3.1 2.9 3.0 3.1 3.1 3.5 2.4 2.6 2.9 2.6
6.5 6.5 6.5 6.5 6.5 6.5 6.5 6.5 6.5 6.5 6.6 5.9 5.8 5.5 5.0 4.6 4.8 5.5 4.9 3.8 3.0 3.7 4.0 4.6 4.3 3.9 4.4 4.8 5.6 5.6 5.5 5.0 4.6 5.0 5.0 4.5 3.2 3.7 2.8 2.4 2.8 2.0 2.7 2.9 3.2 3.2 2.7 2.1 1.8
Wind_Speed
5 7 3 3 2 6 20 8 8 2 5 7 12 7 12 15 5 5 4 9 19 21 25 29 31 27 26 25 25 24 24 23 24 24 23 23 23 24 22 19 20 22 21 20 23 23 21 20 18
8 2 3 1 5 8 7 18 18 3 6 5 9 15 19 22 5 2 12 19 20 19 23 26 31 28 26 24 27 25 25 24 23 25 23 24 24 25 23 21 22 22 19 22 21 20 19 15 14
5 3 3 3 5 18 8 4 7 3 11 11 7 8 9 5 4 14 9 20 22 15 19 24 31 30 27 25 29 27 25 24 23 24 23 23 24 24 23 21 24 23 20 21 20 17 16 14 11
1 3 2 5 20 27 13 12 19 17 17 2 12 10 10 6 11 8 23 22 21 18 18 24 27 29 27 25 29 28 26 25 24 24 24 22 24 24 23 25 23 24 20 18 18 16 15 12 11
1 1 3 7 25 15 12 10 15 15 13 13 8 9 13 11 5 18 20 18 18 19 19 22 24 27 27 25 28 29 27 26 25 25 24 23 25 25 26 24 23 23 21 16 16 16 15 12 10
1 2 4 13 24 17 12 10 12 18 21 7 8 9 8 13 4 14 22 20 18 18 17 20 23 23 26 26 26 29 27 26 25 25 25 25 26 25 24 24 23 22 21 18 15 16 14 11 9
4 2 6 14 16 17 15 8 13 20 21 15 2 5 6 18 11 2 15 21 17 17 18 17 19 21 23 25 24 27 27 27 25 25 25 26 25 24 24 22 21 21 22 19 15 15 14 11 8
3 3 7 11 16 22 17 9 13 15 25 5 7 7 6 4 15 16 8 14 18 16 16 14 15 17 18 19 22 26 25 26 26 26 25 26 24 23 23 23 20 21 22 20 16 14 11 9 7
2 5 11 17 15 23 14 14 9 5 5 10 5 7 12 15 14 15 18 13 13 13 15 14 13 12 16 17 21 24 26 27 27 26 29 26 18 22 22 20 20 20 19 18 16 14 11 8 5
6 5 13 7 11 13 15 12 8 3 9 15 8 13 13 10 9 11 18 15 18 17 17 15 13 11 14 17 19 20 22 23 23 22 22 16 19 20 15 23 22 21 19 16 14 12 12 9 5
6 8 13 14 12 13 12 8 2 3 8 16 14 19 14 8 12 6 18 16 19 20 15 15 13 11 13 11 13 14 17 18 20 24 21 18 18 17 13 16 16 17 17 13 12 11 10 8 6
11 12 15 16 16 15 12 12 6 9 15 14 8 17 14 11 10 14 13 15 16 18 21 16 13 12 13 12 8 12 9 15 14 20 22 18 12 13 11 12 13 13 16 12 12 10 11 10 11
10 15 15 17 16 19 16 18 20 21 24 19 24 17 11 12 14 17 9 12 13 14 14 11 10 13 11 11 9 10 9 11 16 20 19 20 13 7 11 12 13 13 16 13 11 10 9 8 10
5 9 15 17 17 7 14 19 7 20 22 20 20 16 13 12 16 8 7 4 5 15 15 13 12 5 13 10 11 10 13 15 16 18 17 21 19 13 11 8 7 11 15 15 13 9 7 7 5
10 12 11 10 12 9 8 20 23 30 20 17 16 13 13 12 11 9 5 4 11 11 12 11 11 8 3 14 12 10 11 15 10 15 17 22 20 18 14 10 6 11 15 14 12 9 8 3 3
4 3 2 3 12 7 9 23 16 10 5 9 9 12 13 11 15 8 4 1 8 12 12 9 6 7 5 7 11 6 10 11 11 13 20 22 20 20 15 7 5 13 13 11 5 3 3 3 4
3 4 5 11 10 8 12 11 12 8 4 7 9 9 8 8 9 13 13 7 6 9 9 11 13 7 6 7 10 10 10 10 11 14 16 17 18 18 15 9 9 15 8 4 4 2 3 2 2
5 7 8 11 6 16 10 20 20 16 9 7 7 7 6 7 7 11 12 8 5 3 5 7 6 8 2 6 6 7 7 7 11 9 12 17 16 17 13 10 9 12 4 4 3 3 2 3 4
14 12 15 16 9 5 17 19 19 14 7 4 8 7 10 13 8 13 7 6 5 3 5 6 6 9 7 9 8 9 10 8 6 5 12 14 16 16 13 7 7 9 6 6 6 3 5 2 1
8 11 12 7 6 5 9 16 16 7 5 5 8 7 9 11 14 12 10 8 6 6 6 6 4 7 8 10 10 10 10 8 9 7 9 14 14 15 11 7 7 8 6 6 5 4 2 2 3
6 5 7 14 10 9 6 8 8 1 4 5 9 2 14 15 16 13 11 9 7 8 7 6 9 13 13 12 5 5 8 7 7 8 7 9 16 15 12 9 5 6 5 4 4 4 5 3 0
5 3 12 14 10 4 4 4 8 15 4 6 7 6 11 11 9 9 11 9 11 9 7 4 6 14 15 15 10 11 10 11 8 9 7 8 15 11 13 11 9 6 4 6 4 4 3 1 2
7 7 11 8 9 4 4 3 9 7 12 13 5 4 5 14 18 12 9 9 9 9 6 5 4 14 10 12 13 11 12 9 8 8 10 8 6 10 10 10 8 6 4 5 7 6 5 3 2
12 9 10 3 1 2 4 3 9 14 9 13 11 8 1 7 13 8 8 7 9 8 9 4 6 9 9 8 9 21 18 10 10 8 7 6 4 4 5 8 6 6 6 8 7 6 7 5 3
14 5 3 3 3 4 4 10 8 17 9 9 13 15 5 5 11 8 5 6 6 9 8 8 7 8 9 10 12 5 8 10 10 11 9 9 5 3 5 5 6 4 5 6 7 8 9 9 5
5 3 3 4 1 3 8 5 6 13 10 6 14 15 8 4 5 5 6 9 9 7 6 9 8 5 10 7 8 3 1 3 4 4 5 4 5 5 6 6 4 2 3 4 4 5 5 6 6
7 3 1 3 1 3 4 8 6 18 17 13 13 14 12 12 5 4 5 2 5 10 11 10 11 9 9 12 8 6 5 4 6 5 6 4 4 3 6 6 6 6 5 4 5 4 4 6 6
4 4 4 4 4 4 3 4 7 13 11 12 13 11 9 10 10 10 7 3 5 5 4 7 10 14 13 12 12 9 9 7 9 7 8 6 5 7 7 6 6 5 7 6 7 4 4 5 4
6 5 4 4 3 4 1 4 12 11 9 8 9 8 8 10 9 7 6 6 4 1 5 5 6 11 12 11 9 10 7 11 8 7 8 9 9 7 7 7 6 7 6 6 5 4 5 7 7
4 5 3 3 4 3 2 3 8 13 9 8 10 10 9 7 7 7 7 6 6 6 5 2 5 6 9 10 11 13 13 12 11 13 15 10 12 10 9 9 7 6 5 5 6 7 6 7 9
Wind_Direction
325 305 107 30 187 239 245 240 247 349 228 215 229 226 215 231 228 233 164 144 139 154 157 153 151 152 152 152 153 152 151 150 148 144 142 141 142 140 131 129 123 117 122 113 108 109 109 108 103
327 278 45 87 217 228 259 226 252 278 269 279 255 241 254 261 171 152 149 144 143 153 156 154 150 151 154 153 153 153 153 155 152 147 148 148 147 140 136 136 126 121 118 109 108 111 110 109 109
312 303 101 172 228 232 235 45 218 331 320 327 312 223 242 230 207 169 145 144 138 150 155 156 151 150 155 154 153 154 156 158 154 146 151 149 148 141 138 132 126 119 112 112 114 112 111 113 108
6 4 27 243 236 244 254 302 307 309 313 342 3 324 320 309 161 164 145 142 144 148 153 155 152 148 153 155 154 154 157 158 156 151 154 150 150 140 132 126 123 120 118 118 118 114 111 112 107
355 119 251 246 252 260 277 292 308 297 294 289 12 311 305 281 212 124 140 142 150 146 146 153 156 151 153 157 158 156 158 158 158 155 156 152 147 137 131 130 127 122 123 125 121 118 118 116 110
48 121 243 246 256 272 279 266 280 287 281 297 349 326 288 333 283 139 145 145 154 142 144 153 155 154 154 159 159 158 158 157 159 159 155 147 140 136 133 129 130 129 132 128 126 123 122 120 115
175 198 233 259 276 283 271 260 254 255 272 272 182 279 264 292 330 287 152 144 143 146 147 152 155 153 157 159 158 156 159 156 157 156 152 143 137 140 136 132 131 132 132 129 130 129 127 124 112
182 266 234 239 250 271 269 270 266 255 256 250 150 235 255 302 317 331 279 144 143 146 147 151 150 153 155 161 156 156 153 151 152 148 137 140 142 137 136 136 136 137 134 130 131 132 128 126 123
176 230 242 239 245 255 278 285 283 265 293 254 184 262 287 298 297 295 310 154 150 148 143 148 154 155 153 159 156 150 149 146 144 140 139 139 148 142 151 140 132 130 129 132 134 136 136 136 132
188 225 247 233 243 266 275 266 266 317 296 278 286 268 268 289 320 284 283 184 164 155 151 152 156 156 153 160 157 150 149 147 147 145 141 141 147 156 145 142 139 131 127 130 138 144 150 150 162
200 231 242 254 259 253 285 262 285 245 255 249 254 260 275 294 298 253 325 226 171 158 147 157 150 150 155 156 152 147 146 145 146 147 142 146 145 152 151 143 138 133 139 139 146 152 162 168 190
251 237 237 253 250 258 277 261 233 217 235 254 248 248 259 279 277 286 294 284 174 154 144 158 142 144 151 154 156 150 149 149 150 152 146 153 146 157 161 147 146 143 152 154 166 179 186 198 218
250 263 255 255 251 240 238 239 228 231 238 228 238 250 215 256 272 266 263 312 157 115 121 101 133 144 148 152 156 154 151 153 154 156 156 160 156 158 163 164 147 151 164 173 184 192 201 217 208
265 258 252 255 253 224 236 253 238 250 248 236 239 231 207 217 257 232 267 250 214 118 120 104 95 82 150 156 158 160 158 161 159 164 172 163 157 160 160 162 159 171 176 188 193 188 206 211 201
268 274 273 256 238 228 257 258 246 254 265 243 240 217 201 209 214 223 238 153 231 138 138 128 126 98 146 161 164 170 168 161 163 172 171 164 156 160 164 169 180 188 181 191 196 190 176 173 205
265 258 290 235 212 209 153 263 279 238 242 249 189 199 194 203 190 187 198 148 267 164 137 129 117 112 68 197 169 167 172 169 162 163 166 162 154 159 161 169 174 177 169 167 155 159 150 162 167
267 294 285 300 231 193 199 272 252 271 293 234 208 214 228 171 176 188 188 225 237 233 168 154 141 138 101 224 159 156 158 169 150 149 151 151 146 149 152 156 158 162 153 155 160 148 146 152 176
295 280 270 269 267 202 212 254 271 276 239 235 233 233 250 142 146 144 140 142 190 186 180 171 154 125 178 184 153 152 140 143 145 146 151 148 149 149 148 156 157 160 150 157 158 158 169 170 188
268 315 314 314 323 160 238 262 269 273 252 232 233 226 200 142 158 115 127 131 163 150 123 157 163 149 160 176 158 157 159 142 145 150 152 151 156 158 159 165 160 163 160 172 174 165 177 173 123
277 303 312 309 242 228 273 272 269 253 221 217 271 240 157 130 114 115 143 162 182 169 167 174 170 164 149 198 170 167 157 153 159 161 156 158 159 168 166 168 163 170 164 166 177 157 131 179 166
315 305 302 317 318 212 305 298 336 1 258 305 309 196 144 157 138 157 162 160 166 167 147 151 183 181 160 173 157 142 142 143 152 160 169 171 173 175 170 161 146 155 145 153 152 180 149 153 140
313 342 343 326 344 312 127 297 350 327 350 329 303 111 148 151 141 135 157 161 156 143 139 131 186 171 148 154 170 180 165 166 172 171 175 174 169 164 172 165 150 148 139 133 131 113 133 90 121
256 311 305 289 299 328 341 70 320 14 354 14 284 135 186 161 157 178 146 174 142 135 128 113 140 163 175 145 174 177 183 170 159 151 151 135 143 148 152 149 146 146 141 139 150 154 145 140 159
276 301 301 252 252 25 290 117 359 2 57 353 11 4 291 157 137 137 153 158 156 155 142 184 153 112 133 155 173 193 188 160 152 151 154 143 144 142 150 147 150 153 153 160 164 168 158 149 198
358 10 347 14 16 216 358 74 53 3 27 81 8 0 68 65 137 148 177 162 169 148 152 166 178 147 113 143 180 193 155 150 168 169 174 157 152 153 178 152 158 165 175 172 173 177 165 159 182
309 54 345 20 56 323 22 46 20 5 39 24 42 359 14 94 148 168 214 180 170 140 169 170 171 144 130 122 158 208 103 162 135 155 148 170 172 170 184 173 167 189 203 174 177 191 178 171 172
313 22 165 303 181 47 5 355 343 5 17 48 65 20 10 19 28 171 183 203 158 193 184 181 172 164 167 153 171 176 187 164 177 188 183 167 151 177 174 179 187 188 191 198 210 247 212 157 198
54 295 35 345 36 77 341 65 6 7 8 17 32 49 359 20 33 36 45 54 225 236 187 186 176 189 176 172 186 189 202 207 195 190 201 183 175 183 192 182 185 181 187 197 199 181 145 146 167
1 20 26 119 31 21 50 69 8 354 358 23 14 22 8 20 19 18 24 16 16 356 209 189 205 161 169 185 188 187 209 210 190 210 215 198 187 185 164 168 176 176 189 184 197 153 172 169 151
67 36 47 85 335 35 81 59 323 340 1 35 30 23 25 24 18 19 29 22 30 26 42 168 185 190 184 185 194 203 218 216 211 209 215 211 203 185 168 177 177 163 195 190 203 175 174 159 159